User: anonymous   Login
Location: Parc des �les de St-Timoth�e
(45.2924°N, 74.0481°W)
Time: 20:45:46
(UTC-05:00)
Language:

Cosmos 2173 Rocket - Orbit

View from above orbital plane
View from above orbital plane
View from above satellite
View from above satellite

Ground track
Ground track

The orbit data is extracted from the following two-line orbital elements,

1 21797U 91081B   15031.92541703  .00000108  00000-0  93136-4 0  5975
2 21797 082.9574 346.1869 0037805 000.3693 058.0659 13.77320257165017
Epoch (UTC): 31 January 2015 22:12:36
Eccentricity: 0.0037805
inclination: 82.9574°
perigee height: 945 km
apogee height: 1001 km
right ascension of ascending node: 346.1869°
argument of perigee: 0.3693°
revolutions per day: 13.77320257
mean anomaly at epoch: 58.0659°
orbit number at epoch: 16501

The dashed part of the orbit path shows where the satellite is in the earth's shadow,  

DLR